Time,TemperatureF,DewpointF,PressureIn,WindDirection,WindDirectionDegrees,WindSpeedMPH,WindSpeedGustMPH,Humidity,HourlyPrecipIn,Conditions,Clouds,dailyrainin,SoftwareType,DateUTC
2013-10-20 00:05:00,47.9,47.0,30.06,South,174,3.0,4.0,96,0.00,,,0.00,weatherlink.com 1.10,2013-10-20 07:05:00,
2013-10-20 00:20:00,47.6,47.0,30.06,South,174,0.0,4.0,96,0.00,,,0.00,weatherlink.com 1.10,2013-10-20 07:20:00,
2013-10-20 00:35:00,47.6,47.0,30.06,South,174,1.0,3.0,96,0.00,,,0.00,weatherlink.com 1.10,2013-10-20 07:35:00,
2013-10-20 00:50:00,47.7,47.0,30.05,South,174,2.0,2.0,96,0.00,,,0.00,weatherlink.com 1.10,2013-10-20 07:50:00,
2013-10-20 01:05:00,47.7,47.0,30.05,South,174,0.0,4.0,96,0.00,,,0.00,weatherlink.com 1.10,2013-10-20 08:05:00,
2013-10-20 01:20:00,47.5,47.0,30.06,South,174,0.0,1.0,96,0.00,,,0.00,weatherlink.com 1.10,2013-10-20 08:20:00,
2013-10-20 01:35:00,47.6,47.0,30.06,South,174,3.0,5.0,96,0.00,,,0.00,weatherlink.com 1.10,2013-10-20 08:35:00,
2013-10-20 01:50:00,47.3,46.0,30.06,South,174,0.0,4.0,96,0.00,,,0.00,weatherlink.com 1.10,2013-10-20 08:50:00,
2013-10-20 02:05:00,47.5,47.0,30.06,South,174,1.0,3.0,97,0.00,,,0.00,weatherlink.com 1.10,2013-10-20 09:05:00,
2013-10-20 02:20:00,47.9,47.0,30.06,South,174,3.0,5.0,97,0.00,,,0.00,weatherlink.com 1.10,2013-10-20 09:20:00,
2013-10-20 02:36:00,47.9,47.0,30.06,South,174,4.0,4.0,97,0.00,,,0.00,weatherlink.com 1.10,2013-10-20 09:36:00,
2013-10-20 02:51:00,47.8,47.0,30.05,South,174,1.0,5.0,97,0.00,,,0.00,weatherlink.com 1.10,2013-10-20 09:51:00,
2013-10-20 03:06:00,47.6,47.0,30.05,South,174,0.0,6.0,97,0.00,,,0.00,weatherlink.com 1.10,2013-10-20 10:06:00,
2013-10-20 03:21:00,47.7,47.0,30.05,South,174,2.0,4.0,97,0.00,,,0.00,weatherlink.com 1.10,2013-10-20 10:21:00,
2013-10-20 03:36:00,47.7,47.0,30.04,South,174,2.0,3.0,97,0.00,,,0.00,weatherlink.com 1.10,2013-10-20 10:36:00,
2013-10-20 03:51:00,47.7,47.0,30.04,South,175,3.0,5.0,97,0.00,,,0.00,weatherlink.com 1.10,2013-10-20 10:51:00,
2013-10-20 04:06:00,47.7,47.0,30.03,South,175,1.0,3.0,97,0.00,,,0.00,weatherlink.com 1.10,2013-10-20 11:06:00,
2013-10-20 04:21:00,47.7,47.0,30.03,South,174,1.0,3.0,97,0.00,,,0.00,weatherlink.com 1.10,2013-10-20 11:21:00,
2013-10-20 04:36:00,47.7,47.0,30.03,South,174,1.0,4.0,97,0.00,,,0.00,weatherlink.com 1.10,2013-10-20 11:36:00,
2013-10-20 04:51:00,47.7,47.0,30.03,South,174,2.0,4.0,97,0.00,,,0.00,weatherlink.com 1.10,2013-10-20 11:51:00,
2013-10-20 05:06:00,47.7,47.0,30.03,South,174,2.0,2.0,97,0.00,,,0.00,weatherlink.com 1.10,2013-10-20 12:06:00,
2013-10-20 05:21:00,47.7,47.0,30.03,South,175,2.0,4.0,97,0.00,,,0.00,weatherlink.com 1.10,2013-10-20 12:21:00,
2013-10-20 05:36:00,47.5,47.0,30.03,South,174,2.0,4.0,97,0.00,,,0.00,weatherlink.com 1.10,2013-10-20 12:36:00,
2013-10-20 05:51:00,47.3,47.0,30.03,South,174,0.0,4.0,97,0.00,,,0.00,weatherlink.com 1.10,2013-10-20 12:51:00,
2013-10-20 06:06:00,47.3,47.0,30.03,South,174,1.0,1.0,97,0.00,,,0.00,weatherlink.com 1.10,2013-10-20 13:06:00,
2013-10-20 06:21:00,47.4,47.0,30.03,South,174,0.0,1.0,97,0.00,,,0.00,weatherlink.com 1.10,2013-10-20 13:21:00,
2013-10-20 06:36:00,47.5,47.0,30.03,South,174,3.0,4.0,97,0.00,,,0.00,weatherlink.com 1.10,2013-10-20 13:36:00,
2013-10-20 06:51:00,47.6,47.0,30.03,South,174,1.0,2.0,97,0.00,,,0.00,weatherlink.com 1.10,2013-10-20 13:51:00,
2013-10-20 07:06:00,47.6,47.0,30.03,South,174,0.0,3.0,97,0.00,,,0.00,weatherlink.com 1.10,2013-10-20 14:06:00,
2013-10-20 07:21:00,47.6,47.0,30.04,South,174,0.0,3.0,97,0.00,,,0.00,weatherlink.com 1.10,2013-10-20 14:21:00,
2013-10-20 07:36:00,47.3,47.0,30.04,South,174,1.0,2.0,97,0.00,,,0.00,weatherlink.com 1.10,2013-10-20 14:36:00,
2013-10-20 07:51:00,46.9,46.0,30.04,South,174,1.0,2.0,97,0.00,,,0.00,weatherlink.com 1.10,2013-10-20 14:51:00,
2013-10-20 08:06:00,46.6,46.0,30.04,South,174,2.0,2.0,97,0.00,,,0.00,weatherlink.com 1.10,2013-10-20 15:06:00,
2013-10-20 08:21:00,46.2,45.0,30.04,South,174,2.0,4.0,97,0.00,,,0.00,weatherlink.com 1.10,2013-10-20 15:21:00,
2013-10-20 08:36:00,45.9,45.0,30.05,South,174,2.0,5.0,97,0.00,,,0.00,weatherlink.com 1.10,2013-10-20 15:36:00,
2013-10-20 08:51:00,45.9,45.0,30.05,South,174,1.0,3.0,97,0.00,,,0.00,weatherlink.com 1.10,2013-10-20 15:51:00,
2013-10-20 09:06:00,46.2,45.0,30.05,South,174,4.0,4.0,97,0.00,,,0.00,weatherlink.com 1.10,2013-10-20 16:06:00,
2013-10-20 09:21:00,46.3,46.0,30.05,South,174,4.0,5.0,97,0.00,,,0.00,weatherlink.com 1.10,2013-10-20 16:21:00,
2013-10-20 09:36:00,46.5,46.0,30.05,South,174,2.0,4.0,97,0.00,,,0.00,weatherlink.com 1.10,2013-10-20 16:36:00,
2013-10-20 09:51:00,47.0,46.0,30.05,South,174,1.0,3.0,97,0.00,,,0.00,weatherlink.com 1.10,2013-10-20 16:51:00,
2013-10-20 10:06:00,47.4,47.0,30.05,South,174,0.0,3.0,97,0.00,,,0.00,weatherlink.com 1.10,2013-10-20 17:06:00,
2013-10-20 10:21:00,48.4,48.0,30.05,South,174,0.0,0.0,97,0.00,,,0.00,weatherlink.com 1.10,2013-10-20 17:21:00,
2013-10-20 10:36:00,49.6,49.0,30.04,South,174,0.0,0.0,96,0.00,,,0.00,weatherlink.com 1.10,2013-10-20 17:36:00,
2013-10-20 10:51:00,50.6,50.0,30.04,South,174,4.0,4.0,96,0.00,,,0.00,weatherlink.com 1.10,2013-10-20 17:51:00,
2013-10-20 11:06:00,50.5,49.0,30.04,South,174,5.0,5.0,96,0.00,,,0.00,weatherlink.com 1.10,2013-10-20 18:06:00,
2013-10-20 11:21:00,51.7,51.0,30.04,South,174,5.0,6.0,96,0.00,,,0.00,weatherlink.com 1.10,2013-10-20 18:21:00,
2013-10-20 11:36:00,52.7,52.0,30.04,South,174,5.0,7.0,96,0.00,,,0.00,weatherlink.com 1.10,2013-10-20 18:36:00,
2013-10-20 11:51:00,53.4,52.0,30.04,South,174,6.0,8.0,94,0.00,,,0.00,weatherlink.com 1.10,2013-10-20 18:51:00,
2013-10-20 12:06:00,53.9,52.0,30.04,South,174,3.0,7.0,94,0.00,,,0.00,weatherlink.com 1.10,2013-10-20 19:06:00,
2013-10-20 12:22:00,54.0,52.0,30.04,South,174,4.0,7.0,92,0.00,,,0.00,weatherlink.com 1.10,2013-10-20 19:22:00,
2013-10-20 12:37:00,54.1,51.0,30.03,South,174,6.0,8.0,90,0.00,,,0.00,weatherlink.com 1.10,2013-10-20 19:37:00,
2013-10-20 12:52:00,54.0,51.0,30.02,South,174,7.0,10.0,89,0.00,,,0.00,weatherlink.com 1.10,2013-10-20 19:52:00,
2013-10-20 13:07:00,53.7,51.0,30.02,South,174,5.0,12.0,89,0.00,,,0.00,weatherlink.com 1.10,2013-10-20 20:07:00,
2013-10-20 13:22:00,53.0,50.0,30.02,South,174,5.0,11.0,89,0.00,,,0.00,weatherlink.com 1.10,2013-10-20 20:22:00,
2013-10-20 13:37:00,53.4,50.0,30.01,South,174,4.0,9.0,89,0.00,,,0.00,weatherlink.com 1.10,2013-10-20 20:37:00,
2013-10-20 13:52:00,53.1,50.0,30.00,South,174,4.0,7.0,88,0.00,,,0.00,weatherlink.com 1.10,2013-10-20 20:52:00,
2013-10-20 14:07:00,53.7,51.0,29.99,South,174,5.0,7.0,89,0.00,,,0.00,weatherlink.com 1.10,2013-10-20 21:07:00,
2013-10-20 14:22:00,53.3,50.0,29.99,South,174,3.0,8.0,89,0.00,,,0.00,weatherlink.com 1.10,2013-10-20 21:22:00,
2013-10-20 14:37:00,53.9,51.0,29.98,South,174,5.0,9.0,90,0.00,,,0.00,weatherlink.com 1.10,2013-10-20 21:37:00,
2013-10-20 14:52:00,53.2,50.0,29.98,South,174,8.0,9.0,89,0.00,,,0.00,weatherlink.com 1.10,2013-10-20 21:52:00,
2013-10-20 15:22:00,52.8,50.0,29.97,South,174,5.0,8.0,90,0.00,,,0.00,weatherlink.com 1.10,2013-10-20 22:22:00,
2013-10-20 15:37:00,52.8,50.0,29.97,South,174,2.0,7.0,90,0.00,,,0.00,weatherlink.com 1.10,2013-10-20 22:37:00,
2013-10-20 15:52:00,52.0,50.0,29.97,South,174,3.0,6.0,91,0.00,,,0.00,weatherlink.com 1.10,2013-10-20 22:52:00,
2013-10-20 16:07:00,51.4,49.0,29.97,South,174,1.0,6.0,91,0.00,,,0.00,weatherlink.com 1.10,2013-10-20 23:07:00,
2013-10-20 16:22:00,51.3,49.0,29.96,South,174,3.0,6.0,92,0.00,,,0.00,weatherlink.com 1.10,2013-10-20 23:22:00,
2013-10-20 16:37:00,51.4,50.0,29.96,South,174,2.0,5.0,93,0.00,,,0.00,weatherlink.com 1.10,2013-10-20 23:37:00,
2013-10-20 17:07:00,50.7,49.0,29.96,South,175,3.0,7.0,94,0.00,,,0.00,weatherlink.com 1.10,2013-10-21 00:07:00,
2013-10-20 17:22:00,50.7,49.0,29.96,South,174,4.0,7.0,94,0.00,,,0.00,weatherlink.com 1.10,2013-10-21 00:22:00,
2013-10-20 17:37:00,50.3,49.0,29.96,South,174,6.0,8.0,94,0.00,,,0.00,weatherlink.com 1.10,2013-10-21 00:37:00,
2013-10-20 17:52:00,49.6,48.0,29.96,South,174,4.0,8.0,95,0.00,,,0.00,weatherlink.com 1.10,2013-10-21 00:52:00,
2013-10-20 18:07:00,49.2,48.0,29.96,South,174,4.0,8.0,95,0.00,,,0.00,weatherlink.com 1.10,2013-10-21 01:07:00,
2013-10-20 18:22:00,49.2,48.0,29.96,South,174,1.0,4.0,95,0.00,,,0.00,weatherlink.com 1.10,2013-10-21 01:22:00,
2013-10-20 18:37:00,49.6,48.0,29.96,South,174,3.0,4.0,95,0.00,,,0.00,weatherlink.com 1.10,2013-10-21 01:37:00,
2013-10-20 18:52:00,49.6,48.0,29.96,South,174,0.0,4.0,95,0.00,,,0.00,weatherlink.com 1.10,2013-10-21 01:52:00,
2013-10-20 19:07:00,49.7,48.0,29.96,South,174,0.0,4.0,95,0.00,,,0.00,weatherlink.com 1.10,2013-10-21 02:07:00,
2013-10-20 19:22:00,49.6,48.0,29.96,South,174,1.0,4.0,95,0.00,,,0.00,weatherlink.com 1.10,2013-10-21 02:22:00,
2013-10-20 19:37:00,49.8,49.0,29.97,South,175,3.0,6.0,96,0.00,,,0.00,weatherlink.com 1.10,2013-10-21 02:37:00,
2013-10-20 19:52:00,49.6,49.0,29.97,South,174,0.0,8.0,96,0.00,,,0.00,weatherlink.com 1.10,2013-10-21 02:52:00,
2013-10-20 20:07:00,49.5,48.0,29.97,South,174,1.0,9.0,96,0.00,,,0.00,weatherlink.com 1.10,2013-10-21 03:07:00,
2013-10-20 20:22:00,49.3,48.0,29.97,South,174,4.0,8.0,96,0.00,,,0.00,weatherlink.com 1.10,2013-10-21 03:22:00,
2013-10-20 20:37:00,49.4,48.0,29.97,South,174,1.0,4.0,96,0.00,,,0.00,weatherlink.com 1.10,2013-10-21 03:37:00,
2013-10-20 20:52:00,49.1,48.0,29.97,South,174,3.0,6.0,96,0.00,,,0.00,weatherlink.com 1.10,2013-10-21 03:52:00,
2013-10-20 21:07:00,49.2,48.0,29.97,South,174,1.0,5.0,96,0.00,,,0.00,weatherlink.com 1.10,2013-10-21 04:07:00,
2013-10-20 21:22:00,49.1,48.0,29.97,South,174,0.0,4.0,96,0.00,,,0.00,weatherlink.com 1.10,2013-10-21 04:22:00,
2013-10-20 21:37:00,49.2,48.0,29.97,South,174,1.0,7.0,96,0.00,,,0.00,weatherlink.com 1.10,2013-10-21 04:37:00,
2013-10-20 21:52:00,49.1,48.0,29.97,South,174,1.0,5.0,96,0.00,,,0.00,weatherlink.com 1.10,2013-10-21 04:52:00,
2013-10-20 22:07:00,49.1,48.0,29.98,South,174,2.0,9.0,96,0.00,,,0.00,weatherlink.com 1.10,2013-10-21 05:07:00,
2013-10-20 22:22:00,49.2,48.0,29.98,South,174,2.0,5.0,96,0.00,,,0.00,weatherlink.com 1.10,2013-10-21 05:22:00,
2013-10-20 22:38:00,49.0,48.0,29.98,South,174,3.0,6.0,96,0.00,,,0.00,weatherlink.com 1.10,2013-10-21 05:38:00,
2013-10-20 22:53:00,49.0,48.0,29.98,South,174,5.0,7.0,96,0.00,,,0.00,weatherlink.com 1.10,2013-10-21 05:53:00,
2013-10-20 23:08:00,49.0,48.0,29.98,South,174,1.0,6.0,97,0.00,,,0.00,weatherlink.com 1.10,2013-10-21 06:08:00,
2013-10-20 23:23:00,49.1,48.0,29.98,South,174,2.0,7.0,97,0.00,,,0.00,weatherlink.com 1.10,2013-10-21 06:23:00,
2013-10-20 23:38:00,49.2,48.0,29.98,South,174,1.0,7.0,97,0.00,,,0.00,weatherlink.com 1.10,2013-10-21 06:38:00,
2013-10-20 23:53:00,49.3,49.0,29.98,South,174,4.0,6.0,97,0.00,,,0.00,weatherlink.com 1.10,2013-10-21 06:53:00,